Regional Weather Roundup
Issued by NWS

Home | Current Version | Previous Version | Text Only | Print | Product List | Glossary Off
Versions: 1 2 3 4 5 6 7 8 9 10 11 12 13 14 15 16 17 18 19 20 21 22 23 24 25 26 27 28 29 30 31 32 33 34 35 36 37 38 39 40 41 42 43 44 45 46 47 48 49 50

000
ASUS43 KLMK 161602
RWRKY
KENTUCKY REGIONAL WEATHER ROUNDUP
NATIONAL WEATHER SERVICE LOUISVILLE KY
1200 PM EDT WED APR 16 2014

NOTE "FAIR" INDICATES FEW OR NO CLOUDS BELOW 12,000 FEET
WITH NO SIGNIFICANT WEATHER AND/OR OBSTRUCTIONS TO VISIBILITY.

KYZ001>023-026-027-061>063-070>075-161700-
WESTERN AND SOUTH CENTRAL KENTUCKY

CITY           SKY/WX    TMP DP  RH WIND       PRES   REMARKS
PADUCAH        SUNNY     49  25  39 SE9G18    30.33S
HENDERSON      MOSUNNY   41  25  52 E13G20    30.35S
OWENSBORO      SUNNY     44  25  47 SE10G20   30.37S
HOPKINSVILLE   SUNNY     46  23  39 SE14      30.34S
BOWLING GREEN  SUNNY     45  21  38 E12       30.36S
GLASGOW        NOT AVBL
$$

KYZ024-025-028>034-038-045-046-053-161700-
NORTH CENTRAL KENTUCKY

CITY           SKY/WX    TMP DP  RH WIND       PRES   REMARKS
LOUISVILLE/SDF MOSUNNY   43  17  35 SE13      30.39S
LOUISVILLE/LOU SUNNY     46  17  31 E12       30.40S
FORT KNOX      SUNNY     43  20  41 E10       30.35F
$$

KYZ035>037-039>044-047>052-055>060-089>105-161700-
NORTHEAST KENTUCKY

CITY           SKY/WX    TMP DP  RH WIND       PRES   REMARKS
LEXINGTON      SUNNY     43  18  36 E12       30.39R
COVINGTON      MOSUNNY   41  15  35 E10G20    30.40S
FRANKFORT      SUNNY     42  17  36 E13G20    30.39R
$$

KYZ054-064>069-076>088-106>120-161700-
SOUTHEAST KENTUCKY

CITY           SKY/WX    TMP DP  RH WIND       PRES   REMARKS
JACKSON        SUNNY     39  16  39 VRB7      30.38R WCI  34
LONDON         SUNNY     42  18  37 E8        30.37R
SOMERSET       NOT AVBL
MIDDLESBORO    SUNNY     44  22  41 E3        30.36F
MONTICELLO     SUNNY     44  22  42 E10       30.37F
$$




USA.gov is the U.S. government's official web portal to all federal, state and local government web resources and services.